Regional Weather Roundup
Issued by NWS

Home | Current Version | Previous Version | Graphics & Text | Print | Product List | Glossary Off
Versions: 1 2 3 4 5 6 7 8 9 10 11 12 13 14 15 16 17 18 19 20 21 22 23 24 25 26 27 28 29 30 31 32 33 34 35 36 37 38 39 40 41 42 43 44 45 46 47 48 49 50

884
ASUS43 KLMK 282210
RWRKY
KENTUCKY REGIONAL WEATHER ROUNDUP
NATIONAL WEATHER SERVICE LOUISVILLE KY
600 PM EDT SAT MAY 28 2016

NOTE "FAIR" INDICATES FEW OR NO CLOUDS BELOW 12,000 FEET
WITH NO SIGNIFICANT WEATHER AND/OR OBSTRUCTIONS TO VISIBILITY.

KYZ001>023-026-027-061>063-070>075-282300-
WESTERN AND SOUTH CENTRAL KENTUCKY

CITY           SKY/WX    TMP DP  RH WIND       PRES   REMARKS
PADUCAH        PTSUNNY   83  67  58 S10       30.00F
HENDERSON      PTSUNNY   81  64  57 S13       30.01S
OWENSBORO      CLOUDY    81  67  62 S15G23    30.05R
HOPKINSVILLE   CLOUDY    82  66  58 SE10      30.04F
BOWLING GREEN  MOSUNNY   80  69  69 SE8       30.08S
GLASGOW        CLOUDY    75  66  72 SW5       30.09F
$$

KYZ024-025-028>034-038-045-046-053-282300-
NORTH CENTRAL KENTUCKY

CITY           SKY/WX    TMP DP  RH WIND       PRES   REMARKS
LOUISVILLE/SDF CLOUDY    80  66  62 S12       30.06S
LOUISVILLE/LOU MOSUNNY   80  65  59 S9        30.07S
FORT KNOX      PTSUNNY   75  65  70 S9        30.07R
$$

KYZ035>037-039>044-047>052-055>060-089>105-282300-
NORTHEAST KENTUCKY

CITY           SKY/WX    TMP DP  RH WIND       PRES   REMARKS
LEXINGTON      SUNNY     83  61  47 SW9       30.09F
COVINGTON      CLOUDY    81  66  60 SW7       30.07S
FRANKFORT      SUNNY     82  61  48 SW13      30.08R
$$

KYZ054-064>069-076>088-106>120-282300-
SOUTHEAST KENTUCKY

CITY           SKY/WX    TMP DP  RH WIND       PRES   REMARKS
JACKSON        CLOUDY    80  64  58 CALM      30.12S
LONDON         MOSUNNY   83  61  47 MISG      30.11S
SOMERSET       SUNNY     81  59  47 SW5       30.10S
MIDDLESBORO    CLOUDY    83  61  46 S3        30.12S
MONTICELLO     MOCLDY    84  65  52 W9        30.11S
$$





USA.gov is the U.S. government's official web portal to all federal, state and local government web resources and services.